Overview Statistics Trail Chart Weather Telemetry Raw packets
 

This is the latest recevied weather packets stored in our database for station/object K0QED. If no packets are shown the sender has not sent any weather packets the latest 10 day(s).

<< 1 2 3 4 >>
Time Temp. Humidity Pressure Rain* Wind** Luminosity Snow
1788635040 29.44° C 28% 1025.7 hPa 0 mm - 725 W/m² -
1788634739 28.33° C 29% 1025.7 hPa 0 mm - 719 W/m² -
1788634435 28.33° C 31% 1026 hPa 0 mm - 750 W/m² -
1788634134 28.33° C 31% 1026 hPa 0 mm - 708 W/m² -
1788633833 28.89° C 30% 1025.9 hPa 0 mm - 689 W/m² -
1788633531 28.89° C 30% 1026 hPa 0 mm - 698 W/m² -
1788633249 28.89° C 30% 1026 hPa 0 mm - 610 W/m² -
1788632922 27.78° C 31% 1026.1 hPa 0 mm - 573 W/m² -
1788632622 27.78° C 32% 1025.7 hPa 0 mm - 581 W/m² -
1788632317 27.78° C 31% 1026 hPa 0 mm - 340 W/m² -
1788632017 28.89° C 30% 1026.1 hPa 0 mm - 521 W/m² -
1788631716 28.33° C 31% 1026.4 hPa 0 mm - 709 W/m² -
1788631447 27.78° C 30% 1026 hPa 0 mm - 644 W/m² -
1788631106 28.33° C 31% 1026.2 hPa 0 mm - 649 W/m² -
1788630806 27.78° C 32% 1026.5 hPa 0 mm - 656 W/m² -
1788630501 27.78° C 32% 1026.4 hPa 0 mm - 613 W/m² -
1788630197 27.78° C 32% 1026.5 hPa 0 mm - 592 W/m² -
1788629892 27.22° C 33% 1026.4 hPa 0 mm - 594 W/m² -
1788629588 27.78° C 32% 1026.5 hPa 0 mm - 638 W/m² -
1788629289 27.78° C 33% 1026.5 hPa 0 mm - 643 W/m² -
1788628986 27.78° C 33% 1026.6 hPa 0 mm - 636 W/m² -
1788628683 27.22° C 33% 1026.2 hPa 0 mm - 657 W/m² -
1788628380 26.67° C 33% 1026.5 hPa 0 mm - 675 W/m² -
1788628075 26.67° C 34% 1026.6 hPa 0 mm - 712 W/m² -
1788627802 26.67° C 34% 1026.7 hPa 0 mm - 704 W/m² -

* Rain latest hour (hover to see other rain measurements)
** Current wind speed in m/s (hover to see current wind gust speed)